This demonstration page uses our WeatherBlox Daily Observations layout. Learn more.

38.89511, -77.03637

Hourly Observations for September 16, 2018

Temp ( °F °C ) Dew Point ( °F °C ) Humidity (%) Winds ( mph kmh ) Pressure ( in mb ) Visibility ( mi km ) Precip ( " mm )
12:52 am 00:52 Mostly Cloudy 72 22.2 66 18.9 82 82 Calm 30.16 1022 10 16.0934 0 0
1:52 am 01:52 Mostly Clear 70 21.1 66 18.9 87 87 NE 6 9 30.15 1021 10 16.0934 0 0
2:52 am 02:52 Mostly Clear 70 21.1 65 18.3 84 84 NE 7 11 30.15 1021 10 16.0934 0 0
3:52 am 03:52 Partly Cloudy 70 21.1 64 17.8 82 82 ENE 7 11 30.16 1021 10 16.0934 0 0
4:15 am 04:15 Mostly Cloudy 69 20.6 65 18.3 87 87 NE 6 9 30.15 1021 10 16.0934 0 0
4:45 am 04:45 Cloudy 70 21.1 65 18.3 84 84 ENE 7 11 30.15 1021 10 16.0934 0 0
4:52 am 04:52 Cloudy 70 21.1 65 18.3 84 84 NE 5 7 30.16 1021 10 16.0934 0 0
5:44 am 05:44 Cloudy 70 21.1 65 18.3 84 84 NE 9 15 30.18 1022 10 16.0934 0 0
5:52 am 05:52 Cloudy 70 21.1 65 18.3 84 84 NE 8 13 30.16 1022 10 16.0934 0 0
6:52 am 06:52 Cloudy 70 21.1 66 18.9 87 87 NNE 8 13 30.17 1022 10 16.0934 0 0
7:32 am 07:32 Cloudy with Mist and Fog 70 21.1 67 19.4 90 90 NE 9 15 30.18 1022 6 9.65604 0 0
7:45 am 07:45 Cloudy with Mist and Fog 70 21.1 67 19.4 90 90 NNE 7 11 30.18 1022 2.5 4.02335 0 0
7:52 am 07:52 Cloudy with Mist and Fog 70 21.1 67 19.4 90 90 NNE 10 17 30.18 1022 2 3.21868 0 0
8:30 am 08:30 Cloudy with Mist and Fog 71 21.7 68 20 90 90 NE 9 15 30.18 1022 4 6.43736 0 0
8:52 am 08:52 Cloudy with Mist and Fog 71 21.7 68 20 90 90 NE 9 15 30.19 1022 4 6.43736 0 0
9:17 am 09:17 Cloudy 72 22.2 69 20.6 91 91 NE 8 13 30.18 1022 10 16.0934 0 0
9:52 am 09:52 Cloudy 73 22.8 69 20.6 87 87 NE 10 17 30.2 1023 10 16.0934 0 0
10:34 am 10:34 Cloudy 75 23.9 69 20.6 82 82 ENE 10 17 30.21 1023 10 16.0934 0 0
10:52 am 10:52 Cloudy 75 23.9 68 20 79 79 NE 10 17 30.21 1023 10 16.0934 0 0
11:03 am 11:03 Cloudy 75 23.9 69 20.6 82 82 ENE 13 20 30.21 1023 10 16.0934 0 0
11:48 am 11:48 Cloudy 75 24 68 20 78 78 NE 10 17 30.21 1023 10 16.0934 0 0
11:52 am 11:52 Cloudy 75 23.9 68 20 79 79 NE 10 17 30.21 1023 10 16.0934 0 0
12:52 pm 12:52 Cloudy 78 25.6 68 20 71 71 NE 15 24 30.19 1022 10 16.0934 0 0
1:52 pm 13:52 Mostly Cloudy 79 26.1 69 20.6 72 72 NNE 9 15 30.18 1022 10 16.0934 0 0
2:31 pm 14:31 Mostly Cloudy 80 26.7 69 20.6 69 69 ENE 10 17 30.18 1022 10 16.0934 0 0
2:52 pm 14:52 Mostly Cloudy 81 27.2 69 20.6 67 67 ENE 9 15 30.16 1021 10 16.0934 0 0
3:52 pm 15:52 Mostly Cloudy 82 27.8 69 20.6 65 65 ENE 8 13 30.14 1021 10 16.0934 0 0
4:52 pm 16:52 Mostly Cloudy 81 27.2 68 20 65 65 E 15 24 30.13 1020 10 16.0934 0 0
5:52 pm 17:52 Mostly Cloudy 80 26.7 67 19.4 64 64 E 12 19 30.14 1021 10 16.0934 0 0
6:52 pm 18:52 Mostly Cloudy 79 26.1 67 19.4 67 67 E 12 19 30.13 1020 10 16.0934 0 0
7:52 pm 19:52 Mostly Cloudy 77 25 68 20 74 74 E 8 13 30.14 1021 10 16.0934 0 0
8:52 pm 20:52 Mostly Cloudy 76 24.4 69 20.6 79 79 E 9 15 30.16 1021 10 16.0934 0 0
9:52 pm 21:52 Mostly Cloudy 76 24.4 69 20.6 79 79 E 10 17 30.16 1021 10 16.0934 0 0
10:52 pm 22:52 Partly Cloudy 75 23.9 69 20.6 82 82 ESE 10 17 30.15 1021 10 16.0934 0 0
11:52 pm 23:52 Partly Cloudy 74 23.3 69 20.6 85 85 E 9 15 30.15 1021 10 16.0934 0 0

Powered by AerisWeather